Tracking 26935 objects as of 5-Feb-2023
HD Live streaming from Space Station
objects crossing your sky now

STARLINK-1636

Track STARLINK-1636 now!
10-day predictions
STARLINK-1636 is classified as:


NORAD ID: 46153
Int'l Code: 2020-057AN
Perigee: 553.3 km
Apogee: 555.4 km
Inclination: 53.1 °
Period: 95.6 minutes
Semi major axis: 6925 km
RCS: Unknown
Launch date: August 18, 2020
Source: United States (US)
Launch site: AIR FORCE EASTERN TEST RANGE (AFETR)
Your satellite tracking list
Your tracking list is empty




NASA's NSSDC Master Catalog

Two Line Element Set (TLE):
1 46153U 20057AN  23035.15715218  .00001836  00000-0  14209-3 0  9993
2 46153  53.0557 327.2855 0001462  87.4596 272.6560 15.06402045136094
Source of the keplerian elements: AFSPC